Year,Month,Day,Hour,Minute,Value (Times are PST for temperature in C)
2015,06,30,00,00,25.20
2015,06,30,00,01,25.20
2015,06,30,00,02,25.20
2015,06,30,00,03,25.10
2015,06,30,00,04,25.10
2015,06,30,00,05,25.10
2015,06,30,00,06,25.10
2015,06,30,00,07,25.10
2015,06,30,00,08,25.10
2015,06,30,00,09,25.10
2015,06,30,00,10,25.10
2015,06,30,00,11,25.10
2015,06,30,00,12,25.10
2015,06,30,00,13,25.10
2015,06,30,00,14,25.00
2015,06,30,00,15,25.00
2015,06,30,00,16,25.00
2015,06,30,00,17,25.00
2015,06,30,00,18,25.00
2015,06,30,00,19,25.00
2015,06,30,00,20,25.00
2015,06,30,00,21,24.90
2015,06,30,00,22,24.90
2015,06,30,00,23,24.90
2015,06,30,00,24,24.90
2015,06,30,00,25,24.90
2015,06,30,00,26,24.80
2015,06,30,00,27,24.80
2015,06,30,00,28,24.80
2015,06,30,00,29,24.70
2015,06,30,00,30,24.70
2015,06,30,00,31,24.70
2015,06,30,00,32,24.70
2015,06,30,00,33,24.60
2015,06,30,00,34,24.60
2015,06,30,00,35,24.50
2015,06,30,00,36,24.50
2015,06,30,00,37,24.50
2015,06,30,00,38,24.40
2015,06,30,00,39,24.40
2015,06,30,00,40,24.30
2015,06,30,00,41,24.30
2015,06,30,00,42,24.30
2015,06,30,00,43,24.20
2015,06,30,00,44,24.20
2015,06,30,00,45,24.20
2015,06,30,00,46,24.20
2015,06,30,00,47,24.20
2015,06,30,00,48,24.20
2015,06,30,00,49,24.10
2015,06,30,00,50,24.10
2015,06,30,00,51,24.10
2015,06,30,00,52,24.10
2015,06,30,00,53,24.10
2015,06,30,00,54,24.10
2015,06,30,00,55,24.10
2015,06,30,00,56,24.10
2015,06,30,00,57,24.10
2015,06,30,00,58,24.10
2015,06,30,00,59,24.10
2015,06,30,01,00,24.10
2015,06,30,01,01,24.10
2015,06,30,01,02,24.10
2015,06,30,01,03,24.10
2015,06,30,01,04,24.10
2015,06,30,01,05,24.00
2015,06,30,01,06,24.00
2015,06,30,01,07,24.00
2015,06,30,01,08,24.00
2015,06,30,01,09,23.90
2015,06,30,01,10,23.90
2015,06,30,01,11,23.90
2015,06,30,01,12,23.80
2015,06,30,01,13,23.80
2015,06,30,01,14,23.80
2015,06,30,01,15,23.80
2015,06,30,01,16,23.70
2015,06,30,01,17,23.70
2015,06,30,01,18,23.70
2015,06,30,01,19,23.60
2015,06,30,01,20,23.60
2015,06,30,01,21,23.60
2015,06,30,01,22,23.60
2015,06,30,01,23,23.60
2015,06,30,01,24,23.50
2015,06,30,01,25,23.50
2015,06,30,01,26,23.50
2015,06,30,01,27,23.40
2015,06,30,01,28,23.40
2015,06,30,01,29,23.40
2015,06,30,01,30,23.40
2015,06,30,01,31,23.30
2015,06,30,01,32,23.30
2015,06,30,01,33,23.30
2015,06,30,01,34,23.30
2015,06,30,01,35,23.30
2015,06,30,01,36,23.30
2015,06,30,01,37,23.30
2015,06,30,01,38,23.30
2015,06,30,01,39,23.30
2015,06,30,01,40,23.30
2015,06,30,01,41,23.30
2015,06,30,01,42,23.30
2015,06,30,01,43,23.30
2015,06,30,01,44,23.30
2015,06,30,01,45,23.30
2015,06,30,01,46,23.20
2015,06,30,01,47,23.20
2015,06,30,01,48,23.20
2015,06,30,01,49,23.20
2015,06,30,01,50,23.20
2015,06,30,01,51,23.20
2015,06,30,01,52,23.10
2015,06,30,01,53,23.10
2015,06,30,01,54,23.10
2015,06,30,01,55,23.10
2015,06,30,01,56,23.00
2015,06,30,01,57,23.00
2015,06,30,01,58,23.00
2015,06,30,01,59,22.90
2015,06,30,02,00,22.90
2015,06,30,02,01,22.90
2015,06,30,02,02,22.90
2015,06,30,02,03,22.80
2015,06,30,02,04,22.80
2015,06,30,02,05,22.80
2015,06,30,02,06,22.80
2015,06,30,02,07,22.80
2015,06,30,02,08,22.70
2015,06,30,02,09,22.70
2015,06,30,02,10,22.70
2015,06,30,02,11,22.70
2015,06,30,02,12,22.70
2015,06,30,02,13,22.70
2015,06,30,02,14,22.60
2015,06,30,02,15,22.60
2015,06,30,02,16,22.60
2015,06,30,02,17,22.60
2015,06,30,02,18,22.60
2015,06,30,02,19,22.60
2015,06,30,02,20,22.60
2015,06,30,02,21,22.50
2015,06,30,02,22,22.50
2015,06,30,02,23,22.50
2015,06,30,02,24,22.50
2015,06,30,02,25,22.50
2015,06,30,02,26,22.50
2015,06,30,02,27,22.40
2015,06,30,02,28,22.40
2015,06,30,02,29,22.40
2015,06,30,02,30,22.40
2015,06,30,02,31,22.40
2015,06,30,02,32,22.40
2015,06,30,02,33,22.40
2015,06,30,02,34,22.40
2015,06,30,02,35,22.40
2015,06,30,02,36,22.40
2015,06,30,02,37,22.30
2015,06,30,02,38,22.30
2015,06,30,02,39,22.30
2015,06,30,02,40,22.30
2015,06,30,02,41,22.30
2015,06,30,02,42,22.20
2015,06,30,02,43,22.20
2015,06,30,02,44,22.20
2015,06,30,02,45,22.20
2015,06,30,02,46,22.20
2015,06,30,02,47,22.20
2015,06,30,02,48,22.10
2015,06,30,02,49,22.10
2015,06,30,02,50,22.10
2015,06,30,02,51,22.10
2015,06,30,02,52,22.10
2015,06,30,02,53,22.00
2015,06,30,02,54,22.00
2015,06,30,02,55,21.90
2015,06,30,02,56,21.90
2015,06,30,02,57,21.80
2015,06,30,02,58,21.80
2015,06,30,02,59,21.80
2015,06,30,03,00,21.80
2015,06,30,03,01,21.70
2015,06,30,03,02,21.70
2015,06,30,03,03,21.70
2015,06,30,03,04,21.70
2015,06,30,03,05,21.70
2015,06,30,03,06,21.70
2015,06,30,03,07,21.60
2015,06,30,03,08,21.60
2015,06,30,03,09,21.60
2015,06,30,03,10,21.50
2015,06,30,03,11,21.50
2015,06,30,03,12,21.50
2015,06,30,03,13,21.40
2015,06,30,03,14,21.40
2015,06,30,03,15,21.40
2015,06,30,03,16,21.40
2015,06,30,03,17,21.40
2015,06,30,03,18,21.40
2015,06,30,03,19,21.30
2015,06,30,03,20,21.30
2015,06,30,03,21,21.30
2015,06,30,03,22,21.30
2015,06,30,03,23,21.30
2015,06,30,03,24,21.30
2015,06,30,03,25,21.30
2015,06,30,03,26,21.30
2015,06,30,03,27,21.30
2015,06,30,03,28,21.30
2015,06,30,03,29,21.30
2015,06,30,03,30,21.30
2015,06,30,03,31,21.30
2015,06,30,03,32,21.30
2015,06,30,03,33,21.30
2015,06,30,03,34,21.20
2015,06,30,03,35,21.20
2015,06,30,03,36,21.20
2015,06,30,03,37,21.20
2015,06,30,03,38,21.20
2015,06,30,03,39,21.20
2015,06,30,03,40,21.10
2015,06,30,03,41,21.10
2015,06,30,03,42,21.10
2015,06,30,03,43,21.10
2015,06,30,03,44,21.10
2015,06,30,03,45,21.00
2015,06,30,03,46,21.00
2015,06,30,03,47,20.90
2015,06,30,03,48,20.90
2015,06,30,03,49,20.90
2015,06,30,03,50,20.90
2015,06,30,03,51,20.90
2015,06,30,03,52,20.90
2015,06,30,03,53,20.90
2015,06,30,03,54,20.90
2015,06,30,03,55,20.90
2015,06,30,03,56,20.90
2015,06,30,03,57,20.80
2015,06,30,03,58,20.80
2015,06,30,03,59,20.80
2015,06,30,04,00,20.90
2015,06,30,04,01,20.90
2015,06,30,04,02,20.90
2015,06,30,04,03,20.90
2015,06,30,04,04,20.90
2015,06,30,04,05,20.90
2015,06,30,04,06,20.90
2015,06,30,04,07,20.90
2015,06,30,04,08,20.90
2015,06,30,04,09,20.90
2015,06,30,04,10,20.80
2015,06,30,04,11,20.80
2015,06,30,04,12,20.80
2015,06,30,04,13,20.80
2015,06,30,04,14,20.80
2015,06,30,04,15,20.70
2015,06,30,04,16,20.70
2015,06,30,04,17,20.70
2015,06,30,04,18,20.60
2015,06,30,04,19,20.60
2015,06,30,04,20,20.60
2015,06,30,04,21,20.60
2015,06,30,04,22,20.60
2015,06,30,04,23,20.60
2015,06,30,04,24,20.50
2015,06,30,04,25,20.50
2015,06,30,04,26,20.40
2015,06,30,04,27,20.40
2015,06,30,04,28,20.40
2015,06,30,04,29,20.40
2015,06,30,04,30,20.40
2015,06,30,04,31,20.30
2015,06,30,04,32,20.30
2015,06,30,04,33,20.30
2015,06,30,04,34,20.30
2015,06,30,04,35,20.30
2015,06,30,04,36,20.30
2015,06,30,04,37,20.30
2015,06,30,04,38,20.30
2015,06,30,04,39,20.30
2015,06,30,04,40,20.30
2015,06,30,04,41,20.30
2015,06,30,04,42,20.20
2015,06,30,04,43,20.20
2015,06,30,04,44,20.20
2015,06,30,04,45,20.20
2015,06,30,04,46,20.20
2015,06,30,04,47,20.20
2015,06,30,04,48,20.10
2015,06,30,04,49,20.10
2015,06,30,04,50,20.10
2015,06,30,04,51,20.10
2015,06,30,04,52,20.00
2015,06,30,04,53,20.00
2015,06,30,04,54,20.00
2015,06,30,04,55,20.00
2015,06,30,04,56,19.90
2015,06,30,04,57,19.90
2015,06,30,04,58,19.90
2015,06,30,04,59,19.90
2015,06,30,05,00,19.80
2015,06,30,05,01,19.80
2015,06,30,05,02,19.80
2015,06,30,05,03,19.70
2015,06,30,05,04,19.70
2015,06,30,05,05,19.60
2015,06,30,05,06,19.60
2015,06,30,05,07,19.60
2015,06,30,05,08,19.60
2015,06,30,05,09,19.60
2015,06,30,05,10,19.50
2015,06,30,05,11,19.50
2015,06,30,05,12,19.50
2015,06,30,05,13,19.40
2015,06,30,05,14,19.40
2015,06,30,05,15,19.40
2015,06,30,05,16,19.40
2015,06,30,05,17,19.40
2015,06,30,05,18,19.40
2015,06,30,05,19,19.30
2015,06,30,05,20,19.30
2015,06,30,05,21,19.30
2015,06,30,05,22,19.30
2015,06,30,05,23,19.30
2015,06,30,05,24,19.30
2015,06,30,05,25,19.30
2015,06,30,05,26,19.30
2015,06,30,05,27,19.30
2015,06,30,05,28,19.30
2015,06,30,05,29,19.30
2015,06,30,05,30,19.30
2015,06,30,05,31,19.30
2015,06,30,05,32,19.30
2015,06,30,05,33,19.30
2015,06,30,05,34,19.30
2015,06,30,05,35,19.30
2015,06,30,05,36,19.30
2015,06,30,05,37,19.30
2015,06,30,05,38,19.30
2015,06,30,05,39,19.30
2015,06,30,05,40,19.30
2015,06,30,05,41,19.30
2015,06,30,05,42,19.30
2015,06,30,05,43,19.30
2015,06,30,05,44,19.30
2015,06,30,05,45,19.30
2015,06,30,05,46,19.40
2015,06,30,05,47,19.40
2015,06,30,05,48,19.40
2015,06,30,05,49,19.40
2015,06,30,05,50,19.40
2015,06,30,05,51,19.50
2015,06,30,05,52,19.50
2015,06,30,05,53,19.50
2015,06,30,05,54,19.60
2015,06,30,05,55,19.60
2015,06,30,05,56,19.60
2015,06,30,05,57,19.60
2015,06,30,05,58,19.60
2015,06,30,05,59,19.60
2015,06,30,06,00,19.60
2015,06,30,06,01,19.60
2015,06,30,06,02,19.60
2015,06,30,06,03,19.60
2015,06,30,06,04,19.60
2015,06,30,06,05,19.60
2015,06,30,06,06,19.60
2015,06,30,06,07,19.60
2015,06,30,06,08,19.60
2015,06,30,06,09,19.60
2015,06,30,06,10,19.60
2015,06,30,06,11,19.60
2015,06,30,06,12,19.60
2015,06,30,06,13,19.60
2015,06,30,06,14,19.60
2015,06,30,06,15,19.70
2015,06,30,06,16,19.70
2015,06,30,06,17,19.70
2015,06,30,06,18,19.70
2015,06,30,06,19,19.70
2015,06,30,06,20,19.70
2015,06,30,06,21,19.70
2015,06,30,06,22,19.70
2015,06,30,06,23,19.70
2015,06,30,06,24,19.70
2015,06,30,06,25,19.70
2015,06,30,06,26,19.80
2015,06,30,06,27,19.80
2015,06,30,06,28,19.80
2015,06,30,06,29,19.80
2015,06,30,06,30,19.90
2015,06,30,06,31,19.90
2015,06,30,06,32,19.90
2015,06,30,06,33,19.90
2015,06,30,06,34,19.90
2015,06,30,06,35,19.90
2015,06,30,06,36,19.90
2015,06,30,06,37,19.90
2015,06,30,06,38,20.00
2015,06,30,06,39,20.00
2015,06,30,06,40,20.00
2015,06,30,06,41,20.00
2015,06,30,06,42,20.00
2015,06,30,06,43,20.00
2015,06,30,06,44,20.00
2015,06,30,06,45,20.00
2015,06,30,06,46,20.10
2015,06,30,06,47,20.10
2015,06,30,06,48,20.10
2015,06,30,06,49,20.10
2015,06,30,06,50,20.10
2015,06,30,06,51,20.10
2015,06,30,06,52,20.20
2015,06,30,06,53,20.20
2015,06,30,06,54,20.20
2015,06,30,06,55,20.20
2015,06,30,06,56,20.20
2015,06,30,06,57,20.20
2015,06,30,06,58,20.20
2015,06,30,06,59,20.20
2015,06,30,07,00,20.20
2015,06,30,07,01,20.20
2015,06,30,07,02,20.20
2015,06,30,07,03,20.20
2015,06,30,07,04,20.20
2015,06,30,07,05,20.20
2015,06,30,07,06,20.20
2015,06,30,07,07,20.20
2015,06,30,07,08,20.20
2015,06,30,07,09,20.20
2015,06,30,07,10,20.20
2015,06,30,07,11,20.20
2015,06,30,07,12,20.20
2015,06,30,07,13,20.20
2015,06,30,07,14,20.20
2015,06,30,07,15,20.20
2015,06,30,07,16,20.20
2015,06,30,07,17,20.30
2015,06,30,07,18,20.30
2015,06,30,07,19,20.30
2015,06,30,07,20,20.30
2015,06,30,07,21,20.30
2015,06,30,07,22,20.30
2015,06,30,07,23,20.30
2015,06,30,07,24,20.40
2015,06,30,07,25,20.40
2015,06,30,07,26,20.40
2015,06,30,07,27,20.50
2015,06,30,07,28,20.50
2015,06,30,07,29,20.50
2015,06,30,07,30,20.60
2015,06,30,07,31,20.60
2015,06,30,07,32,20.70
2015,06,30,07,33,20.70
2015,06,30,07,34,20.80
2015,06,30,07,35,20.80
2015,06,30,07,36,20.80
2015,06,30,07,37,20.90
2015,06,30,07,38,20.90
2015,06,30,07,39,20.90
2015,06,30,07,40,20.90
2015,06,30,07,41,20.90
2015,06,30,07,42,21.00
2015,06,30,07,43,21.00
2015,06,30,07,44,21.00
2015,06,30,07,45,21.10
2015,06,30,07,46,21.10
2015,06,30,07,47,21.20
2015,06,30,07,48,21.20
2015,06,30,07,49,21.20
2015,06,30,07,50,21.20
2015,06,30,07,51,21.20
2015,06,30,07,52,21.20
2015,06,30,07,53,21.30
2015,06,30,07,54,21.30
2015,06,30,07,55,21.30
2015,06,30,07,56,21.30
2015,06,30,07,57,21.30
2015,06,30,07,58,21.40
2015,06,30,07,59,21.40
2015,06,30,08,00,21.40
2015,06,30,08,01,21.40
2015,06,30,08,02,21.40
2015,06,30,08,03,21.40
2015,06,30,08,04,21.40
2015,06,30,08,05,21.40
2015,06,30,08,06,21.40
2015,06,30,08,07,21.40
2015,06,30,08,08,21.40
2015,06,30,08,09,21.40
2015,06,30,08,10,21.50
2015,06,30,08,11,21.60
2015,06,30,08,12,21.60
2015,06,30,08,13,21.60
2015,06,30,08,14,21.60
2015,06,30,08,15,21.50
2015,06,30,08,16,21.40
2015,06,30,08,17,21.40
2015,06,30,08,18,21.30
2015,06,30,08,19,21.30
2015,06,30,08,20,21.30
2015,06,30,08,21,21.30
2015,06,30,08,22,21.30
2015,06,30,08,23,21.30
2015,06,30,08,24,21.30
2015,06,30,08,25,21.30
2015,06,30,08,26,21.40
2015,06,30,08,27,21.40
2015,06,30,08,28,21.40
2015,06,30,08,29,21.40
2015,06,30,08,30,21.40
2015,06,30,08,31,21.40
2015,06,30,08,32,21.40
2015,06,30,08,33,21.40
2015,06,30,08,34,21.40
2015,06,30,08,35,21.40
2015,06,30,08,36,21.40
2015,06,30,08,37,21.40
2015,06,30,08,38,21.40
2015,06,30,08,39,21.40
2015,06,30,08,40,21.40
2015,06,30,08,41,21.40
2015,06,30,08,42,21.50
2015,06,30,08,43,21.50
2015,06,30,08,44,21.40
2015,06,30,08,45,21.50
2015,06,30,08,46,21.50
2015,06,30,08,47,21.60
2015,06,30,08,48,21.60
2015,06,30,08,49,21.70
2015,06,30,08,50,21.70
2015,06,30,08,51,21.70
2015,06,30,08,52,21.70
2015,06,30,08,53,21.70
2015,06,30,08,54,21.70
2015,06,30,08,55,21.70
2015,06,30,08,56,21.70
2015,06,30,08,57,21.80
2015,06,30,08,58,21.80
2015,06,30,08,59,21.80
2015,06,30,09,00,21.80
2015,06,30,09,01,21.90
2015,06,30,09,02,21.90
2015,06,30,09,03,21.90
2015,06,30,09,04,22.00
2015,06,30,09,05,22.00
2015,06,30,09,06,22.00
2015,06,30,09,07,22.10
2015,06,30,09,08,22.10
2015,06,30,09,09,22.10
2015,06,30,09,10,22.20
2015,06,30,09,11,22.30
2015,06,30,09,12,22.30
2015,06,30,09,13,22.40
2015,06,30,09,14,22.40
2015,06,30,09,15,22.40
2015,06,30,09,16,22.50
2015,06,30,09,17,22.50
2015,06,30,09,18,22.50
2015,06,30,09,19,22.50
2015,06,30,09,20,22.50
2015,06,30,09,21,22.50
2015,06,30,09,22,22.50
2015,06,30,09,23,22.50
2015,06,30,09,24,22.60
2015,06,30,09,25,22.70
2015,06,30,09,26,22.60
2015,06,30,09,27,22.60
2015,06,30,09,28,22.60
2015,06,30,09,29,22.60
2015,06,30,09,30,22.50
2015,06,30,09,31,22.50
2015,06,30,09,32,22.40
2015,06,30,09,33,22.40
2015,06,30,09,34,22.50
2015,06,30,09,35,22.60
2015,06,30,09,36,22.60
2015,06,30,09,37,22.50
2015,06,30,09,38,22.30
2015,06,30,09,39,22.30
2015,06,30,09,40,22.30
2015,06,30,09,41,22.30
2015,06,30,09,42,22.40
2015,06,30,09,43,22.40
2015,06,30,09,44,22.40
2015,06,30,09,45,22.40
2015,06,30,09,46,22.40
2015,06,30,09,47,22.40
2015,06,30,09,48,22.40
2015,06,30,09,49,22.50
2015,06,30,09,50,22.50
2015,06,30,09,51,22.60
2015,06,30,09,52,22.70
2015,06,30,09,53,22.70
2015,06,30,09,54,22.80
2015,06,30,09,55,22.80
2015,06,30,09,56,22.80
2015,06,30,09,57,22.90
2015,06,30,09,58,22.90
2015,06,30,09,59,22.90
2015,06,30,10,00,22.80
2015,06,30,10,01,22.80
2015,06,30,10,02,22.80
2015,06,30,10,03,22.80
2015,06,30,10,04,22.90
2015,06,30,10,05,22.90
2015,06,30,10,06,22.90
2015,06,30,10,07,22.90
2015,06,30,10,08,22.90
2015,06,30,10,09,23.00
2015,06,30,10,10,23.00
2015,06,30,10,11,23.00
2015,06,30,10,12,23.10
2015,06,30,10,13,23.10
2015,06,30,10,14,23.10
2015,06,30,10,15,23.20
2015,06,30,10,16,23.20
2015,06,30,10,17,23.30
2015,06,30,10,18,23.20
2015,06,30,10,19,23.10
2015,06,30,10,20,23.10
2015,06,30,10,21,23.00
2015,06,30,10,22,23.00
2015,06,30,10,23,23.00
2015,06,30,10,24,23.00
2015,06,30,10,25,22.90
2015,06,30,10,26,22.90
2015,06,30,10,27,22.80
2015,06,30,10,28,22.80
2015,06,30,10,29,22.80
2015,06,30,10,30,22.70
2015,06,30,10,31,22.70
2015,06,30,10,32,22.60
2015,06,30,10,33,22.60
2015,06,30,10,34,22.60
2015,06,30,10,35,22.60
2015,06,30,10,36,22.60
2015,06,30,10,37,22.60
2015,06,30,10,38,22.60
2015,06,30,10,39,22.60
2015,06,30,10,40,22.70
2015,06,30,10,41,22.70
2015,06,30,10,42,22.80
2015,06,30,10,43,22.80
2015,06,30,10,44,22.80
2015,06,30,10,45,22.90
2015,06,30,10,46,23.00
2015,06,30,10,47,23.00
2015,06,30,10,48,23.00
2015,06,30,10,49,22.90
2015,06,30,10,50,22.90
2015,06,30,10,51,22.90
2015,06,30,10,52,23.00
2015,06,30,10,53,23.10
2015,06,30,10,54,23.10
2015,06,30,10,55,23.20
2015,06,30,10,56,23.20
2015,06,30,10,57,23.20
2015,06,30,10,58,23.20
2015,06,30,10,59,23.20
2015,06,30,11,00,23.20
2015,06,30,11,01,23.20
2015,06,30,11,02,23.30
2015,06,30,11,03,23.30
2015,06,30,11,04,23.30
2015,06,30,11,05,23.30
2015,06,30,11,06,23.40
2015,06,30,11,07,23.40
2015,06,30,11,08,23.40
2015,06,30,11,09,23.40
2015,06,30,11,10,23.30
2015,06,30,11,11,23.30
2015,06,30,11,12,23.30
2015,06,30,11,13,23.40
2015,06,30,11,14,23.40
2015,06,30,11,15,23.40
2015,06,30,11,16,23.50
2015,06,30,11,17,23.50
2015,06,30,11,18,23.60
2015,06,30,11,19,23.60
2015,06,30,11,20,23.50
2015,06,30,11,21,23.50
2015,06,30,11,22,23.40
2015,06,30,11,23,23.40
2015,06,30,11,24,23.30
2015,06,30,11,25,23.30
2015,06,30,11,26,23.40
2015,06,30,11,27,23.40
2015,06,30,11,28,23.40
2015,06,30,11,29,23.50
2015,06,30,11,30,23.60
2015,06,30,11,31,23.60
2015,06,30,11,32,23.60
2015,06,30,11,33,23.70
2015,06,30,11,34,23.70
2015,06,30,11,35,23.80
2015,06,30,11,36,23.80
2015,06,30,11,37,23.80
2015,06,30,11,38,23.80
2015,06,30,11,39,23.80
2015,06,30,11,40,23.90
2015,06,30,11,41,23.90
2015,06,30,11,42,23.90
2015,06,30,11,43,23.80
2015,06,30,11,44,23.80
2015,06,30,11,45,23.80
2015,06,30,11,46,23.70
2015,06,30,11,47,23.60
2015,06,30,11,48,23.60
2015,06,30,11,49,23.50
2015,06,30,11,50,23.50
2015,06,30,11,51,23.60
2015,06,30,11,52,23.70
2015,06,30,11,53,23.80
2015,06,30,11,54,23.80
2015,06,30,11,55,23.90
2015,06,30,11,56,23.90
2015,06,30,11,57,24.00
2015,06,30,11,58,24.00
2015,06,30,11,59,24.10
2015,06,30,12,00,24.10
2015,06,30,12,01,24.10
2015,06,30,12,02,24.20
2015,06,30,12,03,24.20
2015,06,30,12,04,24.20
2015,06,30,12,05,24.20
2015,06,30,12,06,24.10
2015,06,30,12,07,24.10
2015,06,30,12,08,24.00
2015,06,30,12,09,24.00
2015,06,30,12,10,24.00
2015,06,30,12,11,24.00
2015,06,30,12,12,23.90
2015,06,30,12,13,23.90
2015,06,30,12,14,23.90
2015,06,30,12,15,24.00
2015,06,30,12,16,24.00
2015,06,30,12,17,24.10
2015,06,30,12,18,24.20
2015,06,30,12,19,24.20
2015,06,30,12,20,24.20
2015,06,30,12,21,24.20
2015,06,30,12,22,24.20
2015,06,30,12,23,24.20
2015,06,30,12,24,24.10
2015,06,30,12,25,24.00
2015,06,30,12,26,24.00
2015,06,30,12,27,23.90
2015,06,30,12,28,23.90
2015,06,30,12,29,23.90
2015,06,30,12,30,23.90
2015,06,30,12,31,23.90
2015,06,30,12,32,23.90
2015,06,30,12,33,23.90
2015,06,30,12,34,23.90
2015,06,30,12,35,24.00
2015,06,30,12,36,24.10
2015,06,30,12,37,24.20
2015,06,30,12,38,24.30
2015,06,30,12,39,24.30
2015,06,30,12,40,24.20
2015,06,30,12,41,24.20
2015,06,30,12,42,24.20
2015,06,30,12,43,24.30
2015,06,30,12,44,24.30
2015,06,30,12,45,24.30
2015,06,30,12,46,24.30
2015,06,30,12,47,24.20
2015,06,30,12,48,24.20
2015,06,30,12,49,24.10
2015,06,30,12,50,24.10
2015,06,30,12,51,24.10
2015,06,30,12,52,24.20
2015,06,30,12,53,24.20
2015,06,30,12,54,24.20
2015,06,30,12,55,24.30
2015,06,30,12,56,24.30
2015,06,30,12,57,24.40
2015,06,30,12,58,24.40
2015,06,30,12,59,24.40
2015,06,30,13,00,24.50
2015,06,30,13,01,24.60
2015,06,30,13,02,24.60
2015,06,30,13,03,24.70
2015,06,30,13,04,24.70
2015,06,30,13,05,24.70
2015,06,30,13,06,24.70
2015,06,30,13,07,24.60
2015,06,30,13,08,24.60
2015,06,30,13,09,24.60
2015,06,30,13,10,24.70
2015,06,30,13,11,24.80
2015,06,30,13,12,24.90
2015,06,30,13,13,24.90
2015,06,30,13,14,24.70
2015,06,30,13,15,24.70
2015,06,30,13,16,24.70
2015,06,30,13,17,24.70
2015,06,30,13,18,24.70
2015,06,30,13,19,24.80
2015,06,30,13,20,24.80
2015,06,30,13,21,24.80
2015,06,30,13,22,24.80
2015,06,30,13,23,24.80
2015,06,30,13,24,24.80
2015,06,30,13,25,24.80
2015,06,30,13,26,24.80
2015,06,30,13,27,24.80
2015,06,30,13,28,24.80
2015,06,30,13,29,24.90
2015,06,30,13,30,25.00
2015,06,30,13,31,25.00
2015,06,30,13,32,25.10
2015,06,30,13,33,25.10
2015,06,30,13,34,25.10
2015,06,30,13,35,25.10
2015,06,30,13,36,25.10
2015,06,30,13,37,25.10
2015,06,30,13,38,25.20
2015,06,30,13,39,25.20
2015,06,30,13,40,25.30
2015,06,30,13,41,25.30
2015,06,30,13,42,25.40
2015,06,30,13,43,25.50
2015,06,30,13,44,25.60
2015,06,30,13,45,25.60
2015,06,30,13,46,25.60
2015,06,30,13,47,25.50
2015,06,30,13,48,25.40
2015,06,30,13,49,25.40
2015,06,30,13,50,25.40
2015,06,30,13,51,25.40
2015,06,30,13,52,25.50
2015,06,30,13,53,25.50
2015,06,30,13,54,25.50
2015,06,30,13,55,25.50
2015,06,30,13,56,25.40
2015,06,30,13,57,25.40
2015,06,30,13,58,25.40
2015,06,30,13,59,25.40
2015,06,30,14,00,25.40
2015,06,30,14,01,25.50
2015,06,30,14,02,25.50
2015,06,30,14,03,25.60
2015,06,30,14,04,25.50
2015,06,30,14,05,25.50
2015,06,30,14,06,25.50
2015,06,30,14,07,25.50
2015,06,30,14,08,25.40
2015,06,30,14,09,25.40
2015,06,30,14,10,25.40
2015,06,30,14,11,25.40
2015,06,30,14,12,25.40
2015,06,30,14,13,25.40
2015,06,30,14,14,25.40
2015,06,30,14,15,25.40
2015,06,30,14,16,25.30
2015,06,30,14,17,25.30
2015,06,30,14,18,25.20
2015,06,30,14,19,25.20
2015,06,30,14,20,25.20
2015,06,30,14,21,25.20
2015,06,30,14,22,25.20
2015,06,30,14,23,25.30
2015,06,30,14,24,25.30
2015,06,30,14,25,25.30
2015,06,30,14,26,25.30
2015,06,30,14,27,25.20
2015,06,30,14,28,25.20
2015,06,30,14,29,25.20
2015,06,30,14,30,25.30
2015,06,30,14,31,25.30
2015,06,30,14,32,25.40
2015,06,30,14,33,25.40
2015,06,30,14,34,25.40
2015,06,30,14,35,25.30
2015,06,30,14,36,25.30
2015,06,30,14,37,25.30
2015,06,30,14,38,25.30
2015,06,30,14,39,25.30
2015,06,30,14,40,25.40
2015,06,30,14,41,25.50
2015,06,30,14,42,25.60
2015,06,30,14,43,25.70
2015,06,30,14,44,25.80
2015,06,30,14,45,25.80
2015,06,30,14,46,25.80
2015,06,30,14,47,25.80
2015,06,30,14,48,25.80
2015,06,30,14,49,25.90
2015,06,30,14,50,25.90
2015,06,30,14,51,25.90
2015,06,30,14,52,25.90
2015,06,30,14,53,25.90
2015,06,30,14,54,25.90
2015,06,30,14,55,25.90
2015,06,30,14,56,26.00
2015,06,30,14,57,26.10
2015,06,30,14,58,26.00
2015,06,30,14,59,25.90
2015,06,30,15,00,25.80
2015,06,30,15,01,25.80
2015,06,30,15,02,25.80
2015,06,30,15,03,25.90
2015,06,30,15,04,26.00
2015,06,30,15,05,26.10
2015,06,30,15,06,26.20
2015,06,30,15,07,26.30
2015,06,30,15,08,26.30
2015,06,30,15,09,26.30
2015,06,30,15,10,26.40
2015,06,30,15,11,26.40
2015,06,30,15,12,26.40
2015,06,30,15,13,26.30
2015,06,30,15,14,26.30
2015,06,30,15,15,26.20
2015,06,30,15,16,26.20
2015,06,30,15,17,26.20
2015,06,30,15,18,26.20
2015,06,30,15,19,26.30
2015,06,30,15,20,26.40
2015,06,30,15,21,26.40
2015,06,30,15,22,26.50
2015,06,30,15,23,26.60
2015,06,30,15,24,26.70
2015,06,30,15,25,26.80
2015,06,30,15,26,26.90
2015,06,30,15,27,26.90
2015,06,30,15,28,26.90
2015,06,30,15,29,26.90
2015,06,30,15,30,27.00
2015,06,30,15,31,27.10
2015,06,30,15,32,27.10
2015,06,30,15,33,27.10
2015,06,30,15,34,27.00
2015,06,30,15,35,27.00
2015,06,30,15,36,26.90
2015,06,30,15,37,26.90
2015,06,30,15,38,26.90
2015,06,30,15,39,26.90
2015,06,30,15,40,26.90
2015,06,30,15,41,27.00
2015,06,30,15,42,27.00
2015,06,30,15,43,27.10
2015,06,30,15,44,27.10
2015,06,30,15,45,27.00
2015,06,30,15,46,27.00
2015,06,30,15,47,27.00
2015,06,30,15,48,27.00
2015,06,30,15,49,26.90
2015,06,30,15,50,26.80
2015,06,30,15,51,26.80
2015,06,30,15,52,26.80
2015,06,30,15,53,26.80
2015,06,30,15,54,26.80
2015,06,30,15,55,26.90
2015,06,30,15,56,26.90
2015,06,30,15,57,27.00
2015,06,30,15,58,27.00
2015,06,30,15,59,27.00
2015,06,30,16,00,26.90
2015,06,30,16,01,27.00
2015,06,30,16,02,27.00
2015,06,30,16,03,26.90
2015,06,30,16,04,26.90
2015,06,30,16,05,26.80
2015,06,30,16,06,26.80
2015,06,30,16,07,26.80
2015,06,30,16,08,26.70
2015,06,30,16,09,26.70
2015,06,30,16,10,26.80
2015,06,30,16,11,26.80
2015,06,30,16,12,26.80
2015,06,30,16,13,26.90
2015,06,30,16,14,27.00
2015,06,30,16,15,27.10
2015,06,30,16,16,27.20
2015,06,30,16,17,27.20
2015,06,30,16,18,27.20
2015,06,30,16,19,27.30
2015,06,30,16,20,27.20
2015,06,30,16,21,27.20
2015,06,30,16,22,27.10
2015,06,30,16,23,27.00
2015,06,30,16,24,27.00
2015,06,30,16,25,26.90
2015,06,30,16,26,26.90
2015,06,30,16,27,26.80
2015,06,30,16,28,26.80
2015,06,30,16,29,26.80
2015,06,30,16,30,26.70
2015,06,30,16,31,26.70
2015,06,30,16,32,26.70
2015,06,30,16,33,26.70
2015,06,30,16,34,26.80
2015,06,30,16,35,26.90
2015,06,30,16,36,26.90
2015,06,30,16,37,26.90
2015,06,30,16,38,26.90
2015,06,30,16,39,26.90
2015,06,30,16,40,26.90
2015,06,30,16,41,26.90
2015,06,30,16,42,26.90
2015,06,30,16,43,26.90
2015,06,30,16,44,26.80
2015,06,30,16,45,26.70
2015,06,30,16,46,26.70
2015,06,30,16,47,26.60
2015,06,30,16,48,26.60
2015,06,30,16,49,26.50
2015,06,30,16,50,26.40
2015,06,30,16,51,26.40
2015,06,30,16,52,26.40
2015,06,30,16,53,26.40
2015,06,30,16,54,26.40
2015,06,30,16,55,26.50
2015,06,30,16,56,26.60
2015,06,30,16,57,26.70
2015,06,30,16,58,26.70
2015,06,30,16,59,26.80
2015,06,30,17,00,26.90
2015,06,30,17,01,27.00
2015,06,30,17,02,27.20
2015,06,30,17,03,27.30
2015,06,30,17,04,27.30
2015,06,30,17,05,27.30
2015,06,30,17,06,27.30
2015,06,30,17,07,27.30
2015,06,30,17,08,27.30
2015,06,30,17,09,27.20
2015,06,30,17,10,27.10
2015,06,30,17,11,27.10
2015,06,30,17,12,27.10
2015,06,30,17,13,27.10
2015,06,30,17,14,27.20
2015,06,30,17,15,27.30
2015,06,30,17,16,27.40
2015,06,30,17,17,27.40
2015,06,30,17,18,27.40
2015,06,30,17,19,27.40